TimeCDT,TemperatureF,Dew PointF,Humidity,Sea Level PressureIn,VisibilityMPH,Wind Direction,Wind SpeedMPH,Gust SpeedMPH,PrecipitationIn,Events,Conditions,WindDirDegrees,DateUTC
12:14 AM,6.8,3.2,85,30.34,10.0,NNW,3.5,-,N/A,,Clear,330,2013-03-26 05:14:00
12:35 AM,6.8,3.2,85,30.34,10.0,NW,3.5,-,N/A,,Clear,310,2013-03-26 05:35:00
12:54 AM,6.8,3.2,85,30.34,10.0,NNW,4.6,-,N/A,,Clear,340,2013-03-26 05:54:00
1:14 AM,6.8,3.2,85,30.34,10.0,NW,3.5,-,N/A,,Clear,320,2013-03-26 06:14:00
1:35 AM,6.8,3.2,85,30.34,10.0,NW,4.6,-,N/A,,Clear,320,2013-03-26 06:35:00
1:55 AM,5.0,1.4,85,30.34,10.0,NW,6.9,-,N/A,,Clear,320,2013-03-26 06:55:00
2:14 AM,3.2,1.4,92,30.34,10.0,NW,4.6,-,N/A,,Clear,320,2013-03-26 07:14:00
2:35 AM,3.2,1.4,92,30.34,10.0,NW,4.6,-,N/A,,Clear,320,2013-03-26 07:35:00
2:54 AM,3.2,1.4,92,30.34,10.0,NW,3.5,-,N/A,,Clear,310,2013-03-26 07:54:00
3:14 AM,1.4,-0.4,92,30.34,10.0,NW,4.6,-,N/A,,Clear,310,2013-03-26 08:14:00
3:35 AM,1.4,-2.2,85,30.34,10.0,NW,5.8,-,N/A,,Clear,320,2013-03-26 08:35:00
3:54 AM,3.2,-0.4,85,30.34,10.0,NNW,4.6,-,N/A,,Clear,340,2013-03-26 08:54:00
4:14 AM,3.2,1.4,92,30.34,10.0,NW,4.6,-,N/A,,Clear,320,2013-03-26 09:14:00
4:35 AM,1.4,-0.4,92,30.33,10.0,Calm,Calm,-,N/A,,Clear,0,2013-03-26 09:35:00
4:54 AM,3.2,-0.4,85,30.33,10.0,Calm,Calm,-,N/A,,Clear,0,2013-03-26 09:54:00
5:15 AM,-0.4,-2.2,92,30.34,10.0,NW,3.5,-,N/A,,Clear,320,2013-03-26 10:15:00
5:35 AM,1.4,-2.2,85,30.34,10.0,Calm,Calm,-,N/A,,Clear,0,2013-03-26 10:35:00
5:54 AM,-0.4,-2.2,92,30.34,10.0,Calm,Calm,-,N/A,,Clear,0,2013-03-26 10:54:00
6:15 AM,-0.4,-2.2,92,30.34,10.0,Calm,Calm,-,N/A,,Clear,0,2013-03-26 11:15:00
6:35 AM,-0.4,-2.2,92,30.34,10.0,Calm,Calm,-,N/A,,Clear,0,2013-03-26 11:35:00
6:54 AM,-0.4,-2.2,92,30.34,10.0,Calm,Calm,-,N/A,,Clear,0,2013-03-26 11:54:00
7:15 AM,-0.4,-4.0,85,30.34,10.0,NW,3.5,-,N/A,,Clear,320,2013-03-26 12:15:00
7:35 AM,-0.4,-4.0,85,30.34,10.0,Calm,Calm,-,N/A,,Clear,0,2013-03-26 12:35:00
7:54 AM,1.4,-2.2,85,30.34,10.0,Calm,Calm,-,N/A,,Clear,0,2013-03-26 12:54:00
8:15 AM,1.4,-0.4,92,30.35,10.0,Calm,Calm,-,N/A,,Clear,0,2013-03-26 13:15:00
8:35 AM,3.2,-0.4,85,30.34,10.0,Calm,Calm,-,N/A,,Clear,0,2013-03-26 13:35:00
8:54 AM,3.2,-0.4,85,30.35,10.0,Calm,Calm,-,N/A,,Clear,0,2013-03-26 13:54:00
9:15 AM,3.2,-0.4,85,30.35,0.5,Calm,Calm,-,N/A,Fog,Light Freezing Fog,0,2013-03-26 14:15:00
9:34 AM,3.2,1.4,92,30.35,10.0,Calm,Calm,-,N/A,,Scattered Clouds,0,2013-03-26 14:34:00
9:54 AM,3.2,1.4,92,30.35,7.0,Calm,Calm,-,N/A,Snow,Light Snow,0,2013-03-26 14:54:00
10:15 AM,5.0,1.4,85,30.35,10.0,Calm,Calm,-,N/A,,Clear,0,2013-03-26 15:15:00
10:34 AM,6.8,3.2,85,30.35,10.0,Calm,Calm,-,N/A,,Clear,0,2013-03-26 15:34:00
10:54 AM,6.8,3.2,85,30.35,10.0,Calm,Calm,-,N/A,,Clear,0,2013-03-26 15:54:00
11:15 AM,8.6,6.8,92,30.35,10.0,Calm,Calm,-,N/A,,Clear,0,2013-03-26 16:15:00
11:34 AM,10.4,6.8,85,30.35,10.0,Calm,Calm,-,N/A,,Clear,0,2013-03-26 16:34:00
11:54 AM,10.4,8.6,92,30.35,10.0,Calm,Calm,-,N/A,,Clear,0,2013-03-26 16:54:00
12:14 PM,12.2,8.6,85,30.35,10.0,West,3.5,-,N/A,,Clear,280,2013-03-26 17:14:00
12:35 PM,12.2,10.4,92,30.35,10.0,Calm,Calm,-,N/A,,Clear,0,2013-03-26 17:35:00
12:54 PM,14.0,10.4,86,30.35,10.0,Calm,Calm,-,N/A,,Clear,0,2013-03-26 17:54:00
1:14 PM,15.8,12.2,86,30.35,10.0,Calm,Calm,-,N/A,,Clear,0,2013-03-26 18:14:00
1:35 PM,15.8,12.2,86,30.35,10.0,Calm,Calm,-,N/A,,Clear,0,2013-03-26 18:35:00
1:54 PM,17.6,14.0,86,30.34,10.0,Calm,Calm,-,N/A,,Clear,0,2013-03-26 18:54:00
2:14 PM,17.6,15.8,93,30.34,10.0,Calm,Calm,-,N/A,,Clear,0,2013-03-26 19:14:00
2:35 PM,17.6,15.8,93,30.34,10.0,West,3.5,-,N/A,,Clear,270,2013-03-26 19:35:00
2:54 PM,19.4,15.8,86,30.34,10.0,Calm,Calm,-,N/A,,Clear,0,2013-03-26 19:54:00
3:14 PM,19.4,15.8,86,30.34,10.0,Calm,Calm,-,N/A,,Clear,0,2013-03-26 20:14:00
3:35 PM,19.4,15.8,86,30.33,10.0,Calm,Calm,-,N/A,,Clear,0,2013-03-26 20:35:00
3:54 PM,21.2,15.8,80,30.33,10.0,Calm,Calm,-,N/A,,Clear,0,2013-03-26 20:54:00
4:15 PM,21.2,15.8,80,30.32,10.0,Calm,Calm,-,N/A,,Clear,0,2013-03-26 21:15:00
4:35 PM,21.2,15.8,80,30.32,10.0,Calm,Calm,-,N/A,,Clear,0,2013-03-26 21:35:00
4:54 PM,21.2,15.8,80,30.32,10.0,Calm,Calm,-,N/A,,Clear,0,2013-03-26 21:54:00
5:15 PM,21.2,15.8,80,30.32,10.0,Calm,Calm,-,N/A,,Clear,0,2013-03-26 22:15:00
5:34 PM,21.2,15.8,80,30.32,10.0,Calm,Calm,-,N/A,,Clear,0,2013-03-26 22:34:00
5:54 PM,21.2,14.0,74,30.31,10.0,Calm,Calm,-,N/A,,Clear,0,2013-03-26 22:54:00
6:15 PM,21.2,15.8,80,30.31,10.0,Calm,Calm,-,N/A,,Clear,0,2013-03-26 23:15:00
6:34 PM,21.2,15.8,80,30.31,10.0,Calm,Calm,-,N/A,,Clear,0,2013-03-26 23:34:00
6:54 PM,21.2,14.0,74,30.31,10.0,Calm,Calm,-,N/A,,Clear,0,2013-03-26 23:54:00
7:15 PM,19.4,14.0,80,30.31,10.0,Calm,Calm,-,N/A,,Clear,0,2013-03-27 00:15:00
7:34 PM,19.4,12.2,74,30.31,10.0,Calm,Calm,-,N/A,,Clear,0,2013-03-27 00:34:00
7:55 PM,19.4,12.2,74,30.30,10.0,Calm,Calm,-,N/A,,Clear,0,2013-03-27 00:55:00
8:15 PM,17.6,14.0,86,30.30,10.0,Calm,Calm,-,N/A,,Clear,0,2013-03-27 01:15:00
8:34 PM,17.6,12.2,79,30.30,10.0,Calm,Calm,-,N/A,,Clear,0,2013-03-27 01:34:00
8:55 PM,15.8,10.4,79,30.31,10.0,Calm,Calm,-,N/A,,Clear,0,2013-03-27 01:55:00
9:15 PM,12.2,8.6,85,30.31,10.0,Calm,Calm,-,N/A,,Clear,0,2013-03-27 02:15:00
9:34 PM,10.4,8.6,92,30.32,10.0,Calm,Calm,-,N/A,,Clear,0,2013-03-27 02:34:00
9:55 PM,12.2,10.4,92,30.33,10.0,Calm,Calm,-,N/A,,Clear,0,2013-03-27 02:55:00
10:15 PM,10.4,8.6,92,30.33,10.0,WNW,3.5,-,N/A,,Clear,290,2013-03-27 03:15:00
10:34 PM,12.2,10.4,92,30.33,2.0,Calm,Calm,-,N/A,,Clear,0,2013-03-27 03:34:00
10:55 PM,12.2,10.4,92,30.33,5.0,Calm,Calm,-,N/A,,Clear,0,2013-03-27 03:55:00
11:15 PM,14.0,12.2,93,30.33,10.0,Calm,Calm,-,N/A,,Clear,0,2013-03-27 04:15:00
11:34 PM,10.4,6.8,85,30.33,10.0,Calm,Calm,-,N/A,,Clear,0,2013-03-27 04:34:00
11:55 PM,8.6,5.0,85,30.33,10.0,Calm,Calm,-,N/A,,Clear,0,2013-03-27 04:55:00